User: anonymous   Login
Location: Unspecified
(0.0000°N, 0.0000°E)
Time: 08:53:28
(UTC+00:00)
Language:

USA 105 - Orbit

View from above orbital plane
View from above orbital plane
View from above satellite
View from above satellite

Ground track
Ground track

The orbit data is extracted from the following two-line orbital elements,

1 23223U 94054A   17165.24115381 0.00000000  00000-0  00000-0 0    02
2 23223  10.9714  34.2707 0030373 138.3345 221.9044  1.00270000    04
Epoch (UTC): 14 June 2017 05:47:15
Eccentricity: 0.0030373
inclination: 10.9714°
perigee height: 35658 km
apogee height: 35915 km
right ascension of ascending node: 34.2707°
argument of perigee: 138.3345°
revolutions per day: 1.00270000
mean anomaly at epoch: 221.9044°
orbit number at epoch: 0

The dashed part of the orbit path shows where the satellite is in the earth's shadow,  

DLR